Miscellaneous Local Product
Issued by NWS North Platte, NE

Home | Current Version | Previous Version | Text Only | Print | Product List | Glossary On
Versions: 1 2 3 4 5 6 7 8 9 10 11 12 13 14 15 16 17 18 19 20 21 22 23 24 25 26 27 28 29 30 31 32 33 34 35 36 37 38 39 40 41 42 43 44 45 46 47 48 49 50
000
AXUS43 KLBF 220710
MISLBF


WESTERN AND NORTH CENTRAL NEBRASKA HOURLY WEATHER ROUNDUP
NATIONAL WEATHER SERVICE NORTH PLATTE NE
200 AM CDT SAT JUL 22 2017

NOTE: "FAIR" INDICATES FEW OR NO CLOUDS BELOW 12,000 FEET WITH NO
SIGNIFICANT WEATHER AND/OR OBSTRUCTIONS TO VISIBILITY.

NOTE: STATIONS NOT REPORTING VARIABLES SUCH AS SKY/WEATHER OR
PRESSURE ARE PROVIDED BY RAWS AND APRS NETWORKS AND ARE NOT UNDER
NATIONAL WEATHER SERVICE QUALITY CONTROL.

...OBSERVATIONS IN AND NEAR THE EASTERN PANHANDLE OF NEBRASKA...

CITY           SKY/WX    TMP DP  RH WIND       PRES   REMARKS
PINE RIDGE     MOCLDY    68  62  81 CALM      29.99R
GORDON         FAIR      68  62  80 CALM      30.01R
CHADRON        CLOUDY    69  51  52 CALM      30.00R
ALLIANCE       CLOUDY    68  56  65 SW6       30.05R
SIDNEY         CLOUDY    69  57  65 SW32G41   30.11F
CRESCENT LAKE    N/A     75  50  41 SW12        N/A
$$

...OBSERVATIONS IN NORTHERN NEBRASKA AND FAR SOUTHERN SOUTH DAKOTA...

CITY           SKY/WX    TMP DP  RH WIND       PRES   REMARKS
WINNER         FAIR      79  59  50 NW8       29.86R
VALENTINE      CLEAR     74  54  49 NW7       29.92R
THEDFORD       CLOUDY    75  70  85 NW6       29.95R
AINSWORTH      PTCLDY    75  67  75 NW6       29.92R
O`NEILL        CLEAR     72  69  91 W5        29.85R
ORD            CLOUDY    71  67  87 N3        29.83R
BROKEN BOW     CLOUDY    71  67  87 NE3       29.87R
VALENTINE NWR    N/A     74  57  54 CALM        N/A
HALSEY           N/A     78  71  79 W6          N/A
BUTTE            N/A     77  71  82 W5          N/A
CHAMBERS         N/A     75  65  72 CALM        N/A
EWING            N/A     73  69  86 NW3         N/A
$$

...OBSERVATIONS IN SOUTHWEST NEBRASKA AND FAR NORTHEAST COLORADO...

CITY           SKY/WX    TMP DP  RH WIND       PRES   REMARKS
HOLYOKE        LGT RAIN  68  61  77 W20G28    30.08F
IMPERIAL       MOCLDY    72  58  61 NW16      29.98F
OGALLALA       CLOUDY    77  58  50 W18G28    30.02F
NORTH PLATTE   CLOUDY    81  57  43 W17       29.94R
MCCOOK         CLOUDY    80  60  50 W9        29.89R
LEXINGTON      PTCLDY    78  70  76 SW5       29.85R
STAPLETON        N/A     74  64  70 CALM        N/A
GOTHENBURG       N/A     78  57  48 NW5         N/A
CALLAWAY         N/A     69  67  93 CALM        N/A
$$

...OBSERVATIONS IN CENTRAL LINCOLN COUNTY AREA...

CITY           SKY/WX    TMP DP  RH WIND       PRES   REMARKS
N.P. AIRPORT   CLOUDY    81  57  43 W17       29.94R
N.P. DOWNTOWN    N/A     82  57  42 W3G20       N/A
N.P. SOUTHEAST   N/A     82  56  40 W9G21       N/A
N.P. HILLCREST   N/A     82  56  41 W21G31      N/A
$$

...SOME OBSERVATIONS FROM AROUND THE REGION...

CITY           SKY/WX    TMP DP  RH WIND       PRES   REMARKS
DENVER         CLOUDY    62  59  90 S14       30.21F
LIMON          CLOUDY    63  59  87 N16G24    30.18R
ASPEN          CLOUDY    58  54  86 S6        30.40F
LARAMIE        CLOUDY    55  50  83 S7        30.30R
CASPER         CLOUDY    72  47  40 S18G24    30.11S
CHEYENNE       CLOUDY    63  52  67 SW12      30.22R
SCOTTSBLUFF    CLOUDY    73  54  51 SE5       30.08R
GRAND ISLAND   CLOUDY    74  71  91 NW7       29.81R
OMAHA          CLOUDY    85  69  58 SE8       29.72R
SIOUX FALLS    CLOUDY    75  73  93 E13       29.81S
PIERRE         CLOUDY    71  67  87 CALM      29.84R
RAPID CITY     CLOUDY    70  42  36 NW8       29.97R
BISMARCK       PTCLDY    63  62  97 CALM      29.86S
KANSAS CITY    CLEAR     84  72  67 SW17G24   29.82F
HILL CITY      CLEAR     82  57  42 SW6       29.86S
WICHITA        CLEAR     85  69  58 S16       29.88S
DODGE CITY     CLEAR     80  58  46 S12       29.93S
OKLAHOMA CITY  CLEAR     81  69  67 S12       29.95S
DALLAS         PTCLDY    86  71  60 S12       29.93S HX  91
AMARILLO       CLEAR     74  58  57 S8        30.05S
$$




USA.gov is the U.S. government's official web portal to all federal, state and local government web resources and services.